STARLINK-35414, 65798

Orbit data source: Space-Track

STARLINK-35414, 65798 is a payload satellite owned by SpaceX/Seattle (US) in SSO that was launched on Fri, 26 Sep 2025 UTC via an FALCON 9 launch vehicle from the Air Force Western Test Range (AFWTR). Payload-class satellites include a variety of spacecraft equipped with specific instruments for various scientific and technological missions. These include communications satellites like Starlink; space stations such as the ISS; scientific satellites like the Hubble; Earth observation satellites from companies like Planet Labs, Umbra, and HawkEye 360; GPS; miniature CubeSats for education and research; and military/defense satellites.

Loading next visibility...
Identifier
65798, 2025-218H
Orbit
SSO
Country
Flag of USUS
Related business
Manufacturer
SpaceX/Seattle
Mission
Operational Commercial Communications
Bus & Motor
STARLINK V2MO, Unknown motor
Mass
575 kg wet, ~530 kg dry
Launch date (UTC)
2025-09-26 (9 months ago)
Launch vehicle
FALCON 9
Launch site
Air Force Western Test Range (AFWTR)
Object type
Payload
Rocket body
Debris
Shape & HBR
Box + 2 Pan, 17.7 m
Radar Cross Section
36.964 m², Large (>1 m²)

Expand to show TLE details & history
Last TLE update: 12 hours ago

TLE from 12 hours ago
0 STARLINK-35414
1 65798U 25218H   26171.33122830  .00011792  00000-0  81986-3 0  9997
2 65798  97.3400  33.0162 0002707  90.7953 269.3584 15.05648464 40413
Epoch: 2026-06-20T07:56Z
TLE epoch observation values (Epoch: 2026-06-20T07:56:58.125Z)
Latitude
-0.00007°
Longitude
5.22664°
Altitude
552.61 km
Speed
7.585 km/s
True Right ascension
02h 12m 03s
True Declination
0° 00' 00"
Sunlit
Object was in daylight at epoch
Visualization orbit readout
Latitude
Unknown
Longitude
Unknown
Altitude
Unknown
Speed
Unknown
Apparent Right ascension
Unknown
Apparent Declination
Unknown
Sunlit
N/A
Visualization observer readout
Local Sidereal Time
07:18:49
Azimuth
Unknown
Elevation
Unknown
Doppler factor
Unknown
Orbital elements
Apogee altitude
548.373 km
Perigee altitude
544.624 km
Semi-major axis
6,924.635 km
Eccentricity
0.00027
Inclination
97.34°
RAAN
33.0162°
Arg. of periapsis
90.7953°
True anomaly
269.32738°
Mean anomaly
269.3584°
Eccentric anomaly
269.34289°
Mean motion
3.76659 °/min
Orbital period
95.58 mins
BSTAR
0.00081986
Loading maneuver chart data...
Computing Atmospheric mass density...
Loading historical data...
Loading historical data...
Loading historical data...
Loading historical data...
Loading historical data...
Loading historical data...
Loading historical data...

Documentation

Showing up to 5 results
|